Location: Beneden-Haastrecht
(52.0012°N, 4.7557°E)
Time: 14:30:18
(UTC+00:00)

USA 308 - Pass Details

Date: 24 October 2020
Orbit: 571 x 578 km, 54.0° (Epoch: 23 November)

Event Time Altitude Azimuth Distance (km) Brightness Sun altitude
Rises 18:30:10 0° 286° (WNW) 2,787 7.9 -19.5°
Reaches altitude 10° 18:32:26 10° 287° (WNW) 1,886 6.7 -19.9°
Maximum altitude 18:36:44 86° 18° (NNE) 581 2.8 -20.5°
Enters shadow 18:37:28 61° 99° (E) 656 2.8 -20.6°
